Wind_Speed
86 88 89 90 92 94 94 94 97 100 103 105 108 110 111 113 114 116 119 123 123 125 126 127 126 124 118 110 102 95 88 87 80 75 75 83 88 92 95 96 95 93 93
82 84 87 87 87 88 93 97 99 100 102 105 107 110 112 116 120 121 122 127 126 126 124 123 113 103 95 91 86 82 79 74 68 61 68 69 73 77 84 84 83 84 84
80 79 79 84 89 92 93 94 96 99 103 106 110 113 116 119 122 126 128 125 127 123 112 102 96 88 82 77 74 71 67 64 59 55 58 59 62 64 68 74 74 73 75
71 77 81 83 85 85 88 93 98 104 108 111 117 120 122 124 126 130 127 116 105 101 93 85 79 74 70 67 63 60 57 56 53 50 51 51 54 55 58 62 65 65 67
70 73 77 80 85 90 96 104 108 112 114 117 119 121 124 125 121 111 103 95 88 82 75 70 65 61 58 56 52 51 49 48 46 45 44 46 46 48 51 51 55 56 61
73 78 83 88 95 100 103 106 109 113 115 117 119 116 111 104 96 89 81 76 70 64 61 57 54 50 48 47 45 46 45 43 41 40 40 42 40 41 43 45 47 50 55
79 86 90 95 97 101 105 108 111 114 114 111 103 96 90 83 77 70 66 61 57 53 50 47 45 42 41 41 41 42 41 37 35 37 39 39 37 35 35 37 39 45 50
83 88 93 95 99 103 106 109 111 105 97 91 84 78 72 66 62 57 53 48 45 43 42 41 41 38 36 37 38 38 37 33 33 36 38 38 36 32 31 32 36 40 43
89 94 96 100 103 105 106 104 96 89 81 75 69 62 57 53 49 45 43 41 39 37 36 37 38 36 34 35 37 37 35 29 29 31 34 38 36 32 28 29 33 38 40
94 98 102 102 104 103 96 88 81 74 68 61 56 50 45 41 39 38 37 36 36 34 34 35 36 36 34 34 32 32 32 31 31 30 32 35 37 35 32 30 29 33 39
100 103 103 103 99 89 82 74 69 61 56 50 45 41 38 36 33 33 34 36 36 36 35 33 33 32 32 32 32 33 34 35 34 33 33 34 34 36 36 33 33 32 32
102 103 101 94 84 77 69 63 56 50 44 39 37 35 32 31 33 34 34 33 33 33 32 32 32 31 31 31 34 34 34 34 34 33 32 32 32 34 36 36 35 35 35
102 99 90 80 72 64 58 51 44 38 35 33 32 32 32 32 29 28 30 31 32 32 32 32 33 34 34 35 35 35 35 34 34 32 32 33 33 34 35 36 37 37 37
98 88 77 69 61 54 48 39 34 32 30 30 32 30 27 26 28 30 30 31 32 31 30 31 32 34 34 34 32 32 33 32 30 29 31 32 32 34 34 34 36 39 38
85 75 66 57 50 43 35 32 30 29 30 30 27 25 25 26 28 29 30 31 30 30 29 29 29 28 26 27 28 27 25 25 26 28 30 32 32 32 31 30 33 36 38
72 63 54 47 38 32 30 28 28 28 26 25 26 29 29 29 28 28 28 28 29 28 27 27 25 25 24 23 22 22 23 25 26 26 25 24 23 24 24 25 27 31 34
60 51 43 35 30 27 26 25 25 26 26 27 28 29 28 27 26 27 28 29 31 30 30 29 28 26 25 25 25 24 24 23 22 20 19 19 19 20 21 22 23 26 30
47 39 31 27 25 23 25 25 24 21 21 25 28 28 26 25 28 30 31 33 35 35 35 35 34 32 30 29 26 24 21 19 18 17 16 15 15 15 15 18 21 24 27
37 29 25 22 22 23 23 21 20 22 25 28 29 29 30 33 33 34 35 36 38 39 39 37 35 33 32 28 24 21 19 17 15 14 13 12 11 11 12 13 16 20 23
30 25 22 22 23 23 20 20 22 25 28 28 27 29 33 34 33 35 36 39 41 42 42 39 37 34 31 25 22 20 18 14 13 12 11 9 9 9 8 9 13 16 18
27 24 23 23 24 20 19 20 24 30 31 30 31 32 34 35 36 37 39 41 44 46 45 41 38 35 30 26 23 20 16 13 11 9 8 7 7 5 6 7 10 11 14
28 26 26 25 21 20 20 22 25 32 33 32 34 37 39 40 40 40 42 43 44 44 43 41 38 33 29 24 22 18 15 13 10 8 5 5 3 2 3 5 7 10 13
29 28 27 25 22 20 22 24 26 32 34 35 36 38 40 41 42 42 42 43 43 41 39 38 36 32 28 25 21 19 14 11 9 6 3 2 2 1 2 4 7 10 11
29 28 29 26 24 20 24 25 28 33 33 35 37 39 40 42 42 43 43 44 42 40 39 38 35 31 28 25 21 18 14 11 8 5 1 1 2 2 3 5 8 10 11
29 29 28 26 24 20 24 26 30 34 34 36 38 40 41 41 43 44 45 44 44 44 43 40 37 33 29 26 21 18 14 9 7 5 1 2 2 4 6 7 8 9 11
27 27 28 27 23 20 23 25 29 33 36 36 39 42 43 43 43 43 43 44 44 44 43 41 37 33 29 26 21 16 13 9 6 4 1 3 4 4 7 8 10 12 13
Wind_Direction
286 287 289 290 291 293 293 292 291 291 292 291 291 291 290 289 288 286 286 286 287 287 289 290 290 291 290 289 289 286 285 281 277 274 266 264 261 261 261 261 259 258 255
288 290 292 294 293 292 291 292 292 292 292 291 291 291 291 288 286 287 290 292 293 293 293 293 292 293 292 290 288 285 283 282 279 274 269 264 262 259 261 261 258 256 253
292 294 293 292 292 293 293 294 295 294 294 292 292 292 293 292 292 292 293 294 294 293 294 294 293 293 291 289 288 286 284 283 281 276 269 267 265 259 258 258 256 256 254
294 294 292 294 296 297 297 297 297 298 298 297 295 295 293 293 293 293 293 294 294 294 295 295 293 292 290 288 286 285 284 282 281 277 271 267 263 261 259 257 257 255 252
295 300 301 301 302 302 302 302 301 300 299 297 295 294 293 293 294 295 294 295 294 294 294 292 291 289 287 286 286 285 283 281 280 278 274 269 263 261 259 256 255 252 249
307 307 309 307 305 304 303 301 300 298 296 295 295 296 296 295 296 295 296 295 295 293 292 292 290 289 288 288 287 284 283 283 282 279 274 269 265 262 260 257 255 252 249
310 310 308 306 305 305 303 301 299 297 297 298 298 298 297 298 298 298 296 295 295 296 294 293 292 291 289 286 284 282 282 282 281 276 272 269 267 261 258 260 254 249 249
311 309 310 308 307 306 303 302 301 302 301 301 301 301 300 299 297 297 299 298 297 296 295 295 292 291 289 286 284 281 279 278 275 272 272 272 267 262 254 252 251 250 247
313 315 312 310 308 306 305 305 304 304 304 305 304 302 300 300 301 299 299 300 301 300 298 297 295 293 289 286 284 283 280 273 267 267 267 269 269 264 253 245 244 250 252
316 316 313 309 309 308 307 307 307 307 308 307 305 304 303 303 302 303 302 302 302 300 298 296 294 293 290 286 282 280 280 277 272 263 258 260 263 263 259 253 246 239 250
317 314 312 311 311 310 309 309 309 309 309 309 308 307 307 307 307 307 307 307 306 304 302 296 292 289 287 287 285 283 281 280 274 268 259 254 258 262 260 254 249 243 240
317 314 313 313 312 311 311 311 311 311 311 311 310 309 311 314 314 314 314 313 310 306 302 299 294 288 284 283 282 282 282 279 276 274 269 263 259 257 257 254 249 244 240
316 315 315 314 314 314 314 312 313 314 313 311 312 317 320 321 324 321 318 314 311 308 305 303 300 297 293 291 290 289 287 285 283 280 275 269 265 259 254 251 249 244 239
318 317 316 316 317 316 315 316 317 314 314 317 323 325 329 333 329 323 321 320 317 314 309 308 305 303 303 301 296 292 291 289 284 279 273 269 265 262 258 252 247 245 241
319 318 318 319 319 316 317 318 316 316 321 326 332 336 337 335 333 336 333 329 325 324 320 315 315 313 309 304 302 302 299 292 284 278 274 272 270 266 260 253 245 240 238
319 319 320 321 317 318 321 320 321 323 331 341 344 348 346 343 344 344 345 344 342 339 336 334 331 329 326 322 319 313 302 294 290 287 282 275 269 263 258 249 242 238 234
321 322 322 320 320 324 323 324 331 341 344 349 355 352 349 350 353 354 356 354 351 350 347 343 339 335 331 325 322 313 307 301 297 289 285 282 274 264 257 252 244 235 231
326 326 324 324 328 328 328 336 345 349 358 1 356 359 357 359 1 359 357 356 354 352 350 348 345 339 333 330 325 317 314 309 304 297 290 285 278 269 255 245 240 233 229
332 333 333 338 334 334 340 349 352 1 5 3 6 4 6 6 3 0 356 354 352 353 352 349 345 342 336 335 328 325 322 319 312 305 306 299 283 268 255 242 234 229 226
343 347 350 344 342 343 350 360 9 12 7 10 10 13 11 5 2 359 356 354 354 353 351 350 348 347 343 341 335 332 330 327 320 317 310 295 280 267 257 241 230 222 219
359 359 352 348 348 355 5 14 18 16 10 11 12 14 12 8 5 2 1 357 353 350 350 351 349 348 347 345 340 339 338 330 330 322 313 294 287 284 256 234 217 213 212
0 356 354 351 358 6 13 19 19 17 15 12 12 11 9 8 6 3 360 356 353 350 348 350 351 350 348 349 341 344 343 338 337 340 328 307 296 280 249 220 205 203 203
354 354 353 356 4 12 16 16 18 15 16 14 12 10 8 6 4 2 0 356 354 352 351 352 352 352 350 353 349 345 349 342 348 352 351 327 278 214 219 182 178 187 193
350 351 354 0 4 16 19 19 20 16 16 14 12 8 6 4 3 2 0 358 356 356 356 356 353 354 355 356 356 348 351 351 354 359 66 100 165 144 156 153 162 174 178
346 349 354 360 6 14 18 20 20 18 18 17 12 8 6 4 5 3 0 359 358 359 359 358 357 357 358 358 356 354 349 359 357 3 115 122 133 146 145 145 148 158 164
343 346 351 358 5 13 17 18 20 18 18 15 12 9 6 5 6 4 1 0 359 358 358 357 357 357 356 357 358 357 352 353 1 9 90 134 130 143 131 129 138 148 154
Height
10601 10593 10585 10576 10566 10556 10545 10534 10523 10513 10502 10490 10478 10466 10453 10441 10429 10418 10407 10396 10387 10377 10365 10356 10343 10331 10324 10314 10307 10302 10296 10292 10298 10296 10295 10281 10280 10278 10275 10283 10296 10306 10319
10583 10574 10565 10556 10545 10533 10522 10512 10500 10488 10475 10462 10448 10435 10421 10407 10393 10381 10371 10357 10347 10333 10319 10311 10303 10295 10287 10279 10273 10267 10263 10260 10262 10267 10255 10256 10255 10256 10248 10255 10265 10275 10285
10565 10556 10546 10536 10525 10512 10500 10488 10474 10460 10446 10431 10417 10402 10387 10373 10359 10345 10335 10323 10309 10297 10286 10278 10272 10265 10256 10248 10244 10240 10237 10234 10235 10237 10233 10232 10231 10233 10233 10230 10238 10249 10257
10549 10539 10528 10516 10503 10490 10476 10462 10447 10431 10415 10399 10383 10369 10355 10340 10326 10314 10300 10287 10275 10266 10257 10251 10244 10237 10231 10226 10223 10220 10216 10213 10214 10215 10213 10213 10211 10212 10212 10214 10217 10227 10232
10531 10520 10507 10494 10479 10464 10448 10433 10417 10400 10383 10367 10351 10336 10321 10306 10291 10280 10269 10257 10248 10241 10234 10228 10222 10217 10212 10208 10206 10202 10200 10197 10196 10196 10195 10193 10193 10194 10194 10198 10200 10206 10209
10510 10498 10484 10469 10453 10438 10422 10405 10387 10368 10350 10333 10317 10303 10286 10271 10263 10252 10244 10234 10226 10220 10213 10208 10204 10201 10197 10192 10190 10185 10183 10183 10182 10180 10177 10175 10179 10180 10181 10181 10184 10186 10188
10490 10476 10462 10447 10430 10412 10393 10374 10354 10335 10318 10301 10285 10272 10258 10248 10238 10230 10221 10214 10208 10203 10197 10193 10189 10186 10183 10179 10176 10172 10170 10171 10170 10166 10163 10162 10163 10166 10168 10169 10170 10170 10171
10470 10455 10438 10420 10401 10382 10362 10342 10323 10305 10288 10274 10260 10249 10237 10228 10219 10212 10205 10200 10195 10190 10184 10180 10175 10174 10171 10166 10163 10160 10159 10160 10158 10153 10151 10149 10150 10153 10154 10155 10155 10155 10158
10446 10428 10410 10390 10370 10350 10330 10312 10294 10279 10265 10252 10240 10230 10221 10214 10206 10199 10193 10187 10183 10179 10174 10169 10164 10160 10159 10156 10151 10147 10146 10148 10146 10144 10141 10137 10138 10140 10143 10144 10143 10144 10145
10420 10400 10381 10361 10340 10320 10302 10285 10270 10257 10245 10235 10225 10217 10209 10203 10196 10190 10183 10178 10173 10169 10165 10159 10154 10149 10146 10144 10141 10137 10134 10134 10133 10133 10130 10127 10125 10127 10129 10131 10132 10133 10133
10394 10373 10352 10331 10311 10293 10278 10265 10253 10242 10232 10223 10214 10206 10200 10194 10189 10182 10176 10170 10164 10159 10154 10149 10144 10139 10136 10132 10129 10126 10123 10121 10119 10118 10117 10116 10116 10115 10116 10120 10121 10122 10124
10368 10345 10324 10305 10288 10273 10261 10249 10239 10231 10222 10214 10206 10200 10194 10188 10181 10175 10168 10162 10154 10148 10142 10137 10132 10128 10125 10122 10118 10115 10112 10108 10106 10105 10104 10104 10104 10103 10103 10105 10108 10111 10112
10341 10319 10301 10284 10270 10256 10246 10237 10229 10221 10214 10207 10201 10194 10188 10181 10175 10167 10160 10153 10146 10139 10133 10127 10122 10117 10113 10109 10106 10101 10099 10096 10094 10093 10091 10089 10088 10088 10089 10091 10093 10096 10099
10315 10296 10280 10266 10254 10243 10235 10227 10220 10214 10208 10202 10196 10189 10182 10175 10168 10160 10152 10145 10138 10131 10125 10119 10113 10107 10103 10098 10094 10091 10088 10085 10083 10080 10078 10077 10076 10075 10076 10079 10081 10083 10087
10294 10277 10264 10252 10242 10234 10227 10221 10215 10209 10204 10198 10191 10184 10176 10168 10161 10153 10145 10138 10131 10125 10118 10113 10107 10101 10096 10091 10086 10082 10079 10075 10072 10069 10066 10065 10064 10063 10064 10066 10067 10069 10073
10276 10263 10251 10242 10233 10227 10221 10216 10211 10207 10201 10193 10185 10177 10170 10162 10155 10148 10141 10133 10126 10119 10112 10106 10100 10094 10089 10083 10079 10074 10069 10065 10061 10058 10055 10053 10052 10052 10052 10054 10055 10058 10061
10261 10250 10240 10233 10227 10222 10218 10214 10210 10202 10194 10188 10181 10173 10165 10159 10152 10144 10137 10130 10122 10115 10107 10100 10094 10087 10080 10075 10069 10063 10058 10054 10052 10049 10047 10046 10044 10043 10043 10044 10045 10047 10050
10249 10239 10232 10227 10223 10220 10216 10211 10205 10199 10193 10186 10178 10170 10163 10156 10149 10141 10134 10127 10119 10111 10103 10095 10087 10080 10073 10067 10060 10054 10050 10047 10045 10042 10040 10039 10037 10037 10037 10037 10038 10039 10043
10240 10233 10229 10225 10221 10218 10214 10209 10203 10197 10189 10182 10175 10168 10160 10153 10145 10138 10130 10123 10116 10107 10098 10090 10082 10074 10067 10061 10054 10049 10044 10041 10039 10036 10035 10033 10031 10031 10031 10031 10031 10033 10036
10237 10232 10228 10225 10220 10216 10212 10207 10202 10195 10188 10181 10175 10167 10160 10153 10146 10138 10130 10121 10112 10103 10094 10086 10077 10069 10062 10056 10050 10044 10040 10037 10034 10033 10031 10029 10027 10026 10026 10026 10026 10028 10030
10238 10234 10230 10225 10220 10216 10211 10207 10201 10194 10186 10180 10173 10166 10159 10152 10144 10136 10128 10118 10109 10099 10090 10081 10073 10065 10057 10051 10046 10041 10037 10034 10032 10030 10028 10025 10024 10023 10022 10022 10022 10024 10026
10241 10236 10231 10226 10221 10216 10212 10206 10200 10193 10186 10179 10173 10166 10158 10150 10142 10134 10126 10117 10109 10099 10088 10078 10070 10062 10055 10050 10043 10038 10034 10032 10030 10028 10025 10023 10022 10021 10020 10020 10020 10021 10022
10243 10238 10233 10227 10222 10217 10211 10206 10200 10194 10187 10180 10173 10166 10159 10150 10142 10133 10124 10116 10107 10098 10088 10077 10069 10061 10054 10047 10041 10036 10033 10030 10028 10026 10023 10022 10020 10019 10018 10018 10018 10019 10021
10246 10239 10234 10228 10223 10217 10212 10206 10200 10195 10188 10181 10174 10167 10159 10151 10142 10133 10124 10115 10107 10097 10087 10077 10068 10060 10052 10045 10040 10035 10031 10029 10027 10025 10023 10021 10020 10018 10017 10017 10017 10018 10020
10246 10240 10235 10229 10224 10218 10213 10208 10201 10196 10189 10182 10175 10168 10160 10152 10142 10133 10124 10115 10106 10095 10085 10076 10067 10058 10051 10045 10039 10034 10030 10028 10026 10025 10023 10020 10019 10018 10017 10017 10017 10018 10020
10246 10240 10235 10230 10224 10219 10214 10209 10203 10197 10190 10184 10177 10169 10161 10152 10142 10134 10125 10115 10106 10096 10086 10076 10067 10059 10051 10044 10039 10035 10030 10027 10026 10025 10023 10021 10020 10019 10019 10019 10019 10019 10021